Location: Ajisawe
(8.4333°N, 4.3833°E)
Time: 00:42:40
(UTC+00:00)

Courier 1B Rocket - Pass Details

Date: 26 April 2021
Orbit: 920 x 1202 km, 28.3° (Epoch: 13 May)

Event Time Altitude Azimuth Distance (km) Brightness Sun altitude
Rises 18:26:54 0° 309° (NW) 3,577 9.4 -9.2°
Reaches altitude 10° 18:31:29 10° 339° (NNW) 2,678 7.8 -10.3°
Maximum altitude 18:33:54 12° 1° (N) 2,553 7.4 -10.8°
Drops below altitude 10° 18:36:22 10° 23° (NNE) 2,740 7.3 -11.4°
Sets 18:41:12 0° 53° (NE) 3,764 7.7 -12.6°
